SCP
-0 0 0 0 0 0 0 0 0 0 0 0 0 0 0 0 0 0 0 0 0 0 0 0 0 0 0 0 0 0 0 0 0 0 0 0 0 0 0 0 0 0 0
0 0 0 0 0 0 0 0 0 0 0 0 0 0 0 0 0 0 0 0 0 0 0 0 0 0 0 0 0 0 0 0 0 0 0 0 0 0 0 0 0 0 0
0 0 0 0 0 0 0 0 0 0 0 0 0 0 0 0 0 0 0 0 0 0 0 0 0 0 0 0 0 0 0 0 0 0 0 0 0 0 0 0 0 0 0
0 0 0 0 0 0 0 0 0 0 0 0 0 0 0 0 0 0 0 0 0 0 0 0 0 0 0 0 0 0 0 0 0 0 0 0 0 0 0 0 0 0 0
0 0 0 0 0 0 0 0 0 0 0 0 0 0 0 0 0 0 0 0 0 0 0 0 0 0 0 0 0 0 0 0 0 0 0 0 0 0 0 0 0 0 0
0 0 0 0 0 0 0 0 0 0 0 0 0 0 0 0 0 0 0 0 0 0 0 0 0 0 0 0 0 0 0 0 0 0 0 0 0 0 0 1 0 0 0
0 0 0 0 0 1 1 1 0 0 0 0 0 0 0 0 0 0 0 0 0 0 0 0 0 0 0 0 0 0 0 0 0 0 0 0 0 0 0 1 1 1 0
0 0 0 0 0 1 1 1 1 1 0 0 0 0 0 0 0 0 0 0 0 0 0 0 0 0 0 0 0 0 0 0 0 0 0 0 0 0 1 1 1 1 0
0 0 0 0 1 2 2 1 1 1 0 0 0 0 0 0 0 0 0 0 0 0 0 0 0 0 0 0 0 0 0 0 0 0 0 0 0 0 1 1 0 0 0
0 0 0 0 1 1 2 2 1 1 1 1 1 1 0 1 1 0 0 0 0 0 0 0 0 0 0 0 0 0 0 0 0 0 0 0 0 0 0 0 0 0 0
0 0 0 0 0 1 1 2 2 1 1 1 1 1 1 1 1 0 0 0 0 0 0 0 0 0 0 0 0 0 0 0 0 0 0 0 0 0 0 0 0 0 0
0 0 0 0 0 1 1 1 1 1 1 1 1 1 1 1 0 0 0 0 0 0 0 0 0 0 0 0 0 0 0 0 0 0 0 0 0 0 0 0 0 0 0
0 0 0 0 0 0 0 0 1 1 1 1 1 1 1 1 0 1 0 0 1 0 1 1 1 0 0 0 0 0 0 0 0 0 0 0 0 0 0 0 0 0 0
0 0 0 1 1 0 0 0 0 1 1 1 1 1 1 1 0 0 0 0 0 1 1 0 0 0 0 0 0 0 0 0 0 0 0 0 0 0 0 0 0 0 0
0 0 0 1 1 0 0 0 0 0 0 1 1 1 1 1 0 0 0 0 0 0 0 0 0 0 0 0 0 0 0 0 0 0 0 0 0 0 0 0 0 0 0
0 0 0 1 1 1 0 0 0 0 0 1 1 1 1 0 0 0 0 0 0 0 0 0 0 0 0 0 0 0 0 0 0 0 0 0 0 0 0 0 0 0 0
0 0 0 0 1 1 0 0 0 0 1 1 1 1 1 0 0 0 0 0 0 0 0 0 0 0 0 0 0 0 0 0 0 0 0 0 0 0 0 0 0 0 0
0 0 0 0 1 1 1 0 1 1 1 1 1 1 1 0 0 0 0 0 0 0 0 0 0 0 0 0 0 0 0 0 0 0 0 0 0 0 0 0 0 0 0
0 0 0 0 1 1 1 1 1 1 1 1 1 1 1 0 0 0 0 0 0 0 0 0 0 0 0 0 0 0 0 0 0 0 0 0 0 0 0 0 0 0 0
0 0 0 0 1 1 1 0 1 1 1 1 1 1 1 1 0 0 0 0 0 0 0 0 0 0 0 0 0 0 0 0 0 0 0 0 0 0 0 0 0 0 0
0 0 0 0 0 1 1 1 1 1 1 1 1 1 1 1 0 0 0 0 0 0 0 0 0 0 0 0 0 0 0 0 0 0 0 0 0 0 0 0 0 0 0
0 0 0 0 0 1 1 2 1 1 0 0 1 1 1 1 0 0 0 0 0 0 0 0 0 0 0 0 0 0 0 0 0 0 0 0 0 0 0 0 0 0 0
0 0 0 0 1 1 1 0 0 0 0 0 0 1 0 0 0 0 0 0 0 0 0 0 0 0 0 0 0 0 0 0 0 0 0 0 0 0 0 0 0 0 0
0 0 0 1 1 1 1 0 0 0 0 0 0 0 0 0 0 0 0 0 0 0 0 0 0 0 0 0 0 0 0 0 0 0 0 0 0 0 0 0 0 0 0
0 0 1 1 1 1 0 0 0 0 0 0 0 0 0 0 0 0 0 0 0 0 0 0 0 0 0 0 0 0 0 0 0 0 0 0 0 0 0 0 0 0 0
1 1 1 1 0 0 0 0 0 0 0 0 0 0 0 0 0 0 0 0 0 0 0 0 0 0 0 0 0 0 0 0 0 0 0 0 0 0 0 0 0 0 0
Wind_Speed_500mb
45 48 44 38 34 27 23 20 19 20 20 19 19 18 16 14 11 7 6 8 11 13 16 18 18 19 20 21 24 28 32 32 31 27 22 18 11 11 8 7 9 15 15
39 53 48 38 36 29 25 22 19 18 19 18 18 17 16 13 11 8 5 3 5 8 11 13 15 15 16 18 18 20 22 27 31 33 30 25 18 14 12 11 14 16 19
40 50 48 40 37 33 29 25 22 21 19 18 17 16 14 11 9 7 5 3 1 4 6 7 9 11 12 12 13 14 16 19 23 26 31 31 25 20 19 17 17 19 21
40 42 42 41 38 35 33 30 28 25 22 22 20 16 12 9 6 4 4 4 1 1 4 6 7 8 10 10 10 12 13 13 15 19 23 29 31 28 26 24 20 20 22
24 29 41 42 40 39 37 35 34 31 27 25 21 17 13 8 5 4 6 5 3 2 3 6 7 8 10 11 12 12 12 13 10 13 16 22 31 35 33 29 26 20 23
23 35 42 43 46 44 44 42 39 37 35 30 26 21 16 11 7 1 5 9 7 5 6 7 9 10 12 13 15 15 17 13 12 11 13 19 29 38 37 29 28 21 20
30 34 39 43 45 48 48 47 44 43 41 39 34 29 24 18 13 7 1 7 11 10 9 10 10 12 16 19 21 22 22 20 18 14 14 19 26 33 31 25 26 25 23
19 23 29 43 49 52 53 51 51 49 48 46 42 36 31 25 19 13 6 4 9 11 11 13 15 18 21 26 29 31 28 28 22 19 16 19 26 27 30 25 22 20 20
30 35 35 44 46 60 60 58 57 56 52 51 48 44 38 32 25 19 14 7 9 9 10 11 14 18 23 25 28 32 34 31 32 24 25 23 29 28 31 26 21 20 23
31 37 45 48 50 57 68 66 61 60 58 56 55 52 45 39 32 26 20 13 11 10 10 9 9 18 21 24 27 29 32 35 39 33 27 28 32 31 33 33 31 24 25
47 48 53 55 57 63 65 71 68 66 64 61 61 59 53 50 42 34 24 19 15 12 13 13 12 14 15 15 20 25 27 29 32 34 34 29 35 34 35 36 35 30 29
52 48 52 60 59 63 71 75 77 73 72 71 71 68 65 58 49 39 30 25 19 17 18 17 17 18 15 16 20 23 22 20 20 22 28 36 40 41 35 33 34 31 31
50 45 44 52 60 64 70 76 82 83 80 77 78 77 74 65 56 49 39 32 25 23 24 22 21 22 20 18 16 13 9 9 14 15 13 25 42 43 43 33 34 28 31
53 51 51 49 54 57 66 75 82 84 88 87 85 83 80 75 65 57 47 37 30 29 29 26 25 24 24 22 19 16 13 17 15 17 19 21 35 42 42 37 36 35 28
53 55 57 61 60 57 65 70 71 79 89 94 88 89 86 82 71 61 51 42 37 36 34 28 29 29 30 28 26 26 26 19 22 21 22 23 25 36 37 36 33 35 28
52 65 71 69 69 63 59 55 52 68 86 97 95 90 89 82 73 62 55 48 41 39 35 32 32 34 34 34 32 29 30 31 29 33 34 30 30 34 31 29 34 32 28
81 83 79 59 71 75 63 55 49 58 78 82 91 92 85 80 69 63 58 47 40 36 36 36 35 37 39 38 40 34 33 37 39 37 33 32 30 29 31 26 27 29 29
84 83 75 69 58 64 62 50 51 58 68 79 79 86 71 66 56 63 52 44 35 32 37 39 36 38 39 42 45 44 43 40 44 42 36 32 33 32 33 28 24 26 25
83 74 76 71 53 57 54 55 59 63 70 80 74 68 57 49 51 54 46 39 30 32 36 36 36 39 41 43 47 48 47 46 42 42 40 33 32 33 32 27 24 27 24
81 78 70 63 53 57 54 62 70 72 72 74 64 54 48 49 53 49 38 36 34 29 28 31 37 41 42 40 38 40 42 43 45 44 41 35 30 38 35 32 28 25 22
75 71 53 60 61 65 58 69 77 74 69 62 52 44 43 44 39 36 33 36 33 27 27 33 39 38 40 35 34 36 39 39 40 41 39 35 35 36 40 36 33 24 18
49 53 54 58 59 62 61 68 75 69 64 51 42 43 41 36 39 34 32 36 27 29 32 36 37 39 37 33 32 31 22 33 42 42 38 35 30 33 35 38 38 32 23
60 61 62 54 49 54 59 69 67 52 44 46 48 50 48 33 33 39 35 33 29 32 36 36 36 34 28 25 25 17 9 12 15 43 41 39 36 33 33 33 32 34 29
58 65 58 53 49 51 57 57 54 54 53 55 49 42 31 30 31 36 35 31 33 32 35 30 27 26 25 23 24 31 23 3 10 11 34 38 33 31 32 30 26 26 27
52 50 62 56 48 43 41 39 44 48 49 45 39 30 24 29 30 34 33 30 31 34 25 22 22 23 22 24 28 27 33 35 27 12 7 28 34 34 29 27 30 23 27
55 42 49 48 37 31 29 30 33 43 47 43 37 28 28 31 34 35 30 34 30 23 18 18 18 18 18 21 26 30 35 36 35 34 23 16 33 38 27 29 30 27 26
Wind_Direction_500mb
184 181 183 179 179 174 167 161 150 135 128 124 123 124 121 124 136 158 205 228 233 234 236 241 242 244 246 246 244 242 241 243 242 242 243 248 236 219 207 201 183 178 166
173 183 182 184 185 183 179 176 168 152 146 142 141 136 130 125 121 129 151 208 244 239 232 239 247 246 244 249 247 248 245 245 244 239 238 238 230 224 217 207 191 184 174
179 181 182 191 191 190 188 189 188 177 168 163 161 151 139 129 119 118 104 92 125 243 245 242 241 249 252 249 254 253 249 248 247 244 236 230 225 214 212 210 208 207 188
185 183 187 194 195 197 198 199 201 194 189 184 177 169 158 145 125 88 64 53 73 204 235 234 246 250 261 270 269 265 261 252 247 245 240 231 215 213 214 214 211 210 207
175 199 199 200 202 203 206 207 207 204 204 201 192 187 182 165 128 57 22 1 339 284 239 237 244 247 264 275 275 272 274 270 257 249 244 231 217 207 212 214 212 215 213
197 202 206 207 208 208 212 211 211 211 212 212 211 202 199 189 174 126 9 343 328 300 264 252 258 257 254 262 277 265 269 260 269 264 251 233 212 208 215 220 220 214 221
205 204 214 217 216 216 218 218 218 218 218 218 218 212 208 205 201 196 226 339 329 309 285 275 274 268 271 271 269 267 265 259 264 258 254 230 212 208 211 210 214 219 219
224 217 230 226 223 223 224 224 225 225 223 222 221 219 214 212 211 211 223 303 319 308 298 297 294 286 277 270 269 267 262 259 260 257 243 230 216 207 200 203 204 214 214
230 234 237 224 228 226 228 226 228 230 228 228 228 226 221 220 221 222 231 256 292 301 302 302 303 299 288 273 264 262 261 254 253 254 237 227 220 208 203 203 222 241 248
237 243 240 233 233 234 232 229 229 233 233 232 233 231 228 228 230 230 234 251 274 282 288 283 305 318 303 288 271 263 259 253 252 249 235 228 222 217 213 210 217 232 254
238 246 240 242 242 238 238 235 230 233 233 236 237 235 233 231 233 234 238 251 269 273 270 273 301 315 318 308 291 275 261 254 247 242 232 232 225 224 220 225 226 226 240
239 243 238 240 241 243 242 238 233 234 234 236 237 236 235 234 236 239 241 248 260 262 264 275 282 289 296 305 308 288 265 258 245 244 241 228 226 225 225 223 222 228 245
253 252 251 238 239 243 244 242 238 235 237 237 240 239 239 237 236 237 239 246 256 257 265 272 273 280 277 286 295 314 229 230 235 242 238 235 232 228 228 223 224 221 238
267 279 274 260 245 243 240 242 242 240 238 238 240 241 240 237 235 238 240 247 256 254 260 263 269 280 273 272 274 260 260 260 252 255 245 272 238 226 227 227 228 225 235
283 277 277 271 261 256 241 240 243 246 244 241 242 243 242 241 237 239 242 248 256 253 256 259 264 279 281 263 269 262 251 255 259 262 262 270 240 218 227 229 227 225 226
288 294 289 275 263 260 250 241 246 246 246 243 242 245 245 243 241 242 246 248 251 253 260 260 263 273 283 269 262 261 257 256 262 267 269 263 248 230 231 223 226 225 228
289 289 281 278 268 261 245 240 243 245 248 249 248 246 246 246 242 246 244 247 244 253 260 258 259 269 280 276 270 266 263 261 264 269 268 252 230 241 231 224 227 233 241
287 291 281 276 265 256 240 244 245 247 247 246 250 245 246 246 242 239 236 230 240 255 262 261 263 272 278 272 273 270 265 264 262 260 256 253 244 242 226 228 234 235 242
285 285 282 269 261 255 241 241 244 245 244 244 251 241 238 231 227 230 216 228 241 258 262 262 269 279 275 271 272 271 262 261 257 249 247 246 242 230 216 230 239 233 245
287 289 282 256 255 238 243 241 241 242 243 244 248 234 233 230 224 214 214 226 243 255 266 268 279 281 279 276 272 265 258 255 251 244 242 239 236 232 226 218 222 223 239
280 280 262 245 245 235 237 237 238 239 238 242 231 225 223 224 241 209 219 230 242 267 281 275 276 277 277 275 273 260 252 250 243 235 234 238 242 235 228 221 216 227 232
284 268 256 241 239 240 242 239 237 239 235 233 219 215 216 237 213 218 227 232 258 271 279 280 279 281 276 273 263 258 259 253 240 234 234 234 235 229 220 223 224 224 232
277 257 243 238 241 245 242 236 235 235 226 207 202 205 206 210 217 218 225 237 258 272 282 280 277 276 269 260 245 226 210 235 260 233 233 236 240 234 226 226 223 221 236
285 251 242 243 245 239 238 235 235 227 201 196 198 206 205 183 197 208 222 241 259 274 280 274 265 263 253 246 235 223 222 250 196 197 234 231 226 222 221 216 217 219 223
282 254 248 242 227 231 235 227 222 219 203 187 186 194 184 189 205 212 225 249 266 275 273 257 257 253 250 242 236 232 232 237 245 266 274 221 216 211 218 218 217 225 221
274 249 220 212 205 206 206 207 209 204 196 188 187 189 194 199 207 217 239 257 268 261 260 256 251 248 245 241 236 236 236 238 239 238 249 224 205 206 214 215 220 224 225
Wind_Speed_850mb
45 48 44 38 34 27 23 20 19 20 20 19 19 18 16 14 11 7 6 8 11 13 16 18 18 19 20 21 24 28 32 32 31 27 22 18 11 11 8 7 9 15 15
39 53 48 38 36 29 25 22 19 18 19 18 18 17 16 13 11 8 5 3 5 8 11 13 15 15 16 18 18 20 22 27 31 33 30 25 18 14 12 11 14 16 19
40 50 48 40 37 33 29 25 22 21 19 18 17 16 14 11 9 7 5 3 1 4 6 7 9 11 12 12 13 14 16 19 23 26 31 31 25 20 19 17 17 19 21
40 42 42 41 38 35 33 30 28 25 22 22 20 16 12 9 6 4 4 4 1 1 4 6 7 8 10 10 10 12 13 13 15 19 23 29 31 28 26 24 20 20 22
24 29 41 42 40 39 37 35 34 31 27 25 21 17 13 8 5 4 6 5 3 2 3 6 7 8 10 11 12 12 12 13 10 13 16 22 31 35 33 29 26 20 23
23 35 42 43 46 44 44 42 39 37 35 30 26 21 16 11 7 1 5 9 7 5 6 7 9 10 12 13 15 15 17 13 12 11 13 19 29 38 37 29 28 21 20
30 34 39 43 45 48 48 47 44 43 41 39 34 29 24 18 13 7 1 7 11 10 9 10 10 12 16 19 21 22 22 20 18 14 14 19 26 33 31 25 26 25 23
19 23 29 43 49 52 53 51 51 49 48 46 42 36 31 25 19 13 6 4 9 11 11 13 15 18 21 26 29 31 28 28 22 19 16 19 26 27 30 25 22 20 20
30 35 35 44 46 60 60 58 57 56 52 51 48 44 38 32 25 19 14 7 9 9 10 11 14 18 23 25 28 32 34 31 32 24 25 23 29 28 31 26 21 20 23
31 37 45 48 50 57 68 66 61 60 58 56 55 52 45 39 32 26 20 13 11 10 10 9 9 18 21 24 27 29 32 35 39 33 27 28 32 31 33 33 31 24 25
47 48 53 55 57 63 65 71 68 66 64 61 61 59 53 50 42 34 24 19 15 12 13 13 12 14 15 15 20 25 27 29 32 34 34 29 35 34 35 36 35 30 29
52 48 52 60 59 63 71 75 77 73 72 71 71 68 65 58 49 39 30 25 19 17 18 17 17 18 15 16 20 23 22 20 20 22 28 36 40 41 35 33 34 31 31
50 45 44 52 60 64 70 76 82 83 80 77 78 77 74 65 56 49 39 32 25 23 24 22 21 22 20 18 16 13 9 9 14 15 13 25 42 43 43 33 34 28 31
53 51 51 49 54 57 66 75 82 84 88 87 85 83 80 75 65 57 47 37 30 29 29 26 25 24 24 22 19 16 13 17 15 17 19 21 35 42 42 37 36 35 28
53 55 57 61 60 57 65 70 71 79 89 94 88 89 86 82 71 61 51 42 37 36 34 28 29 29 30 28 26 26 26 19 22 21 22 23 25 36 37 36 33 35 28
52 65 71 69 69 63 59 55 52 68 86 97 95 90 89 82 73 62 55 48 41 39 35 32 32 34 34 34 32 29 30 31 29 33 34 30 30 34 31 29 34 32 28
81 83 79 59 71 75 63 55 49 58 78 82 91 92 85 80 69 63 58 47 40 36 36 36 35 37 39 38 40 34 33 37 39 37 33 32 30 29 31 26 27 29 29
84 83 75 69 58 64 62 50 51 58 68 79 79 86 71 66 56 63 52 44 35 32 37 39 36 38 39 42 45 44 43 40 44 42 36 32 33 32 33 28 24 26 25
83 74 76 71 53 57 54 55 59 63 70 80 74 68 57 49 51 54 46 39 30 32 36 36 36 39 41 43 47 48 47 46 42 42 40 33 32 33 32 27 24 27 24
81 78 70 63 53 57 54 62 70 72 72 74 64 54 48 49 53 49 38 36 34 29 28 31 37 41 42 40 38 40 42 43 45 44 41 35 30 38 35 32 28 25 22
75 71 53 60 61 65 58 69 77 74 69 62 52 44 43 44 39 36 33 36 33 27 27 33 39 38 40 35 34 36 39 39 40 41 39 35 35 36 40 36 33 24 18
49 53 54 58 59 62 61 68 75 69 64 51 42 43 41 36 39 34 32 36 27 29 32 36 37 39 37 33 32 31 22 33 42 42 38 35 30 33 35 38 38 32 23
60 61 62 54 49 54 59 69 67 52 44 46 48 50 48 33 33 39 35 33 29 32 36 36 36 34 28 25 25 17 9 12 15 43 41 39 36 33 33 33 32 34 29
58 65 58 53 49 51 57 57 54 54 53 55 49 42 31 30 31 36 35 31 33 32 35 30 27 26 25 23 24 31 23 3 10 11 34 38 33 31 32 30 26 26 27
52 50 62 56 48 43 41 39 44 48 49 45 39 30 24 29 30 34 33 30 31 34 25 22 22 23 22 24 28 27 33 35 27 12 7 28 34 34 29 27 30 23 27
55 42 49 48 37 31 29 30 33 43 47 43 37 28 28 31 34 35 30 34 30 23 18 18 18 18 18 21 26 30 35 36 35 34 23 16 33 38 27 29 30 27 26
Wind_Direction_850mb
184 181 183 179 179 174 167 161 150 135 128 124 123 124 121 124 136 158 205 228 233 234 236 241 242 244 246 246 244 242 241 243 242 242 243 248 236 219 207 201 183 178 166
173 183 182 184 185 183 179 176 168 152 146 142 141 136 130 125 121 129 151 208 244 239 232 239 247 246 244 249 247 248 245 245 244 239 238 238 230 224 217 207 191 184 174
179 181 182 191 191 190 188 189 188 177 168 163 161 151 139 129 119 118 104 92 125 243 245 242 241 249 252 249 254 253 249 248 247 244 236 230 225 214 212 210 208 207 188
185 183 187 194 195 197 198 199 201 194 189 184 177 169 158 145 125 88 64 53 73 204 235 234 246 250 261 270 269 265 261 252 247 245 240 231 215 213 214 214 211 210 207
175 199 199 200 202 203 206 207 207 204 204 201 192 187 182 165 128 57 22 1 339 284 239 237 244 247 264 275 275 272 274 270 257 249 244 231 217 207 212 214 212 215 213
197 202 206 207 208 208 212 211 211 211 212 212 211 202 199 189 174 126 9 343 328 300 264 252 258 257 254 262 277 265 269 260 269 264 251 233 212 208 215 220 220 214 221
205 204 214 217 216 216 218 218 218 218 218 218 218 212 208 205 201 196 226 339 329 309 285 275 274 268 271 271 269 267 265 259 264 258 254 230 212 208 211 210 214 219 219
224 217 230 226 223 223 224 224 225 225 223 222 221 219 214 212 211 211 223 303 319 308 298 297 294 286 277 270 269 267 262 259 260 257 243 230 216 207 200 203 204 214 214
230 234 237 224 228 226 228 226 228 230 228 228 228 226 221 220 221 222 231 256 292 301 302 302 303 299 288 273 264 262 261 254 253 254 237 227 220 208 203 203 222 241 248
237 243 240 233 233 234 232 229 229 233 233 232 233 231 228 228 230 230 234 251 274 282 288 283 305 318 303 288 271 263 259 253 252 249 235 228 222 217 213 210 217 232 254
238 246 240 242 242 238 238 235 230 233 233 236 237 235 233 231 233 234 238 251 269 273 270 273 301 315 318 308 291 275 261 254 247 242 232 232 225 224 220 225 226 226 240
239 243 238 240 241 243 242 238 233 234 234 236 237 236 235 234 236 239 241 248 260 262 264 275 282 289 296 305 308 288 265 258 245 244 241 228 226 225 225 223 222 228 245
253 252 251 238 239 243 244 242 238 235 237 237 240 239 239 237 236 237 239 246 256 257 265 272 273 280 277 286 295 314 229 230 235 242 238 235 232 228 228 223 224 221 238
267 279 274 260 245 243 240 242 242 240 238 238 240 241 240 237 235 238 240 247 256 254 260 263 269 280 273 272 274 260 260 260 252 255 245 272 238 226 227 227 228 225 235
283 277 277 271 261 256 241 240 243 246 244 241 242 243 242 241 237 239 242 248 256 253 256 259 264 279 281 263 269 262 251 255 259 262 262 270 240 218 227 229 227 225 226
288 294 289 275 263 260 250 241 246 246 246 243 242 245 245 243 241 242 246 248 251 253 260 260 263 273 283 269 262 261 257 256 262 267 269 263 248 230 231 223 226 225 228
289 289 281 278 268 261 245 240 243 245 248 249 248 246 246 246 242 246 244 247 244 253 260 258 259 269 280 276 270 266 263 261 264 269 268 252 230 241 231 224 227 233 241
287 291 281 276 265 256 240 244 245 247 247 246 250 245 246 246 242 239 236 230 240 255 262 261 263 272 278 272 273 270 265 264 262 260 256 253 244 242 226 228 234 235 242
285 285 282 269 261 255 241 241 244 245 244 244 251 241 238 231 227 230 216 228 241 258 262 262 269 279 275 271 272 271 262 261 257 249 247 246 242 230 216 230 239 233 245
287 289 282 256 255 238 243 241 241 242 243 244 248 234 233 230 224 214 214 226 243 255 266 268 279 281 279 276 272 265 258 255 251 244 242 239 236 232 226 218 222 223 239
280 280 262 245 245 235 237 237 238 239 238 242 231 225 223 224 241 209 219 230 242 267 281 275 276 277 277 275 273 260 252 250 243 235 234 238 242 235 228 221 216 227 232
284 268 256 241 239 240 242 239 237 239 235 233 219 215 216 237 213 218 227 232 258 271 279 280 279 281 276 273 263 258 259 253 240 234 234 234 235 229 220 223 224 224 232
277 257 243 238 241 245 242 236 235 235 226 207 202 205 206 210 217 218 225 237 258 272 282 280 277 276 269 260 245 226 210 235 260 233 233 236 240 234 226 226 223 221 236
285 251 242 243 245 239 238 235 235 227 201 196 198 206 205 183 197 208 222 241 259 274 280 274 265 263 253 246 235 223 222 250 196 197 234 231 226 222 221 216 217 219 223
282 254 248 242 227 231 235 227 222 219 203 187 186 194 184 189 205 212 225 249 266 275 273 257 257 253 250 242 236 232 232 237 245 266 274 221 216 211 218 218 217 225 221
274 249 220 212 205 206 206 207 209 204 196 188 187 189 194 199 207 217 239 257 268 261 260 256 251 248 245 241 236 236 236 238 239 238 249 224 205 206 214 215 220 224 225